This is the latest recevied weather packets stored in our database for station/object WX4LTG. If no packets are shown the sender has not sent any weather packets the latest 10 day(s).
| Time | Temp. | Humidity | Pressure | Rain* | Wind** | Luminosity | Snow |
|---|---|---|---|---|---|---|---|
| 1777103668 | 21.67° C | 30% | 1007.5 hPa | 0 mm | - | 0 W/m² | - |
| 1777103365 | 22.22° C | 33% | 1007.4 hPa | 0 mm | - | 0 W/m² | - |
| 1777103062 | 22.22° C | 33% | 1007.3 hPa | 0 mm | - | 0 W/m² | - |
| 1777102760 | 22.22° C | 31% | 1007.4 hPa | 0 mm | - | 0 W/m² | - |
| 1777102455 | 22.78° C | 31% | 1007.4 hPa | 0 mm | - | 0 W/m² | - |
| 1777102152 | 23.33° C | 29% | 1007.4 hPa | 0 mm | - | 0 W/m² | - |
| 1777101848 | 23.33° C | 28% | 1007.1 hPa | 0 mm | - | 0 W/m² | - |
| 1777101543 | 23.89° C | 27% | 1007.3 hPa | 0 mm | - | 0 W/m² | - |
| 1777101240 | 24.44° C | 26% | 1007.4 hPa | 0 mm | - | 0 W/m² | - |
| 1777100936 | 24.44° C | 26% | 1007.4 hPa | 0 mm | - | 0 W/m² | - |
| 1777100632 | 24.44° C | 25% | 1007.5 hPa | 0 mm | - | 0 W/m² | - |
| 1777100329 | 25° C | 25% | 1007.5 hPa | 0 mm | - | 0 W/m² | - |
| 1777100027 | 25° C | 25% | 1007.2 hPa | 0 mm | - | 0 W/m² | - |
| 1777099724 | 25° C | 25% | 1007.2 hPa | 0 mm | - | 0 W/m² | - |
| 1777099418 | 25° C | 25% | 1007.5 hPa | 0 mm | - | 0 W/m² | - |
| 1777099116 | 25° C | 25% | 1007.1 hPa | 0 mm | - | 0 W/m² | - |
| 1777098813 | 25.56° C | 25% | 1007.2 hPa | 0 mm | - | 0 W/m² | - |
| 1777098507 | 25.56° C | 24% | 1007.1 hPa | 0 mm | - | 0 W/m² | - |
| 1777098205 | 25° C | 25% | 1007.2 hPa | 0 mm | - | 0 W/m² | - |
| 1777097903 | 25.56° C | 24% | 1007.3 hPa | 0 mm | - | 0 W/m² | - |
| 1777097600 | 25.56° C | 24% | 1007.2 hPa | 0 mm | - | 0 W/m² | - |
| 1777097296 | 25.56° C | 24% | 1007.2 hPa | 0 mm | - | 0 W/m² | - |
| 1777096993 | 25.56° C | 24% | 1007 hPa | 0 mm | - | 0 W/m² | - |
| 1777096689 | 25.56° C | 23% | 1007.3 hPa | 0 mm | - | 0 W/m² | - |
| 1777096388 | 25.56° C | 23% | 1007.2 hPa | 0 mm | - | 0 W/m² | - |
* Rain latest hour (hover to see other rain measurements)
** Current wind speed in m/s (hover to see current wind gust speed)